Find Fastrac-OSCAR-70

NORAD ID: 37380 Int'l Des: 2010-062 Owner: AFSMC Country: US operational
LEOCIRCULAR

当前视图

正在加载3D地球...

About Fastrac-OSCAR-70

Fastrac-OSCAR-70 (NORAD 37380) is a satellite launched Nov 20, 2010 by AFSMC of US. It operates in LEO, CIRCULAR orbit with a mass of 27.00 kg.

即将过境

Passes for default location (London). Set your location on the main map for personalized predictions.

高度历史

Loading altitude history...

两行轨道根数

1 37380U 10062M 26195.12187025 .00000414 00000-0 55812-4 0 9993
2 37380 71.9713 85.3267 0013597 58.1407 302.1080 14.84685593369771
Epoch: Jul 14, 2026 • Age: 19 hours

当前状态

高度 646.0 km
远地点 / 近地点 N/A
速度 7.53 km/s
星下点 -58.00°S, 34.97°E
发射日期 Nov 20, 2010
运行时间 15.6 years
类型 other

技术详情

分类 Payload
质量 27.00 kg
干质量 27.00 kg
总质量 27.00 kg
长度 0.20 m
直径 0.50 m
跨度 0.50 m
形状 Hex Cyl
制造商 UT
平台类型 FASTRAC
阶段状态 In Orbit
所有者/国家 AFSMC/US

Most Searched